Bluefield, WV

9:26 PM EDT on October 16, 2017 (GMT -0400)
Mercer County

Weather History for KBLF - February, 2014

Change the Weather History Date:

Wednesday, February 19, 2014

  Actual Average Record
Temperature  
Mean Temperature 53 °F 38 °F  
Max Temperature 62 °F 47 °F 66 °F (1984)
Min Temperature 44 °F 30 °F -4 °F (2015)
Degree Days  
Heating Degree Days 12 27  
Month to date heating degree days 576 542  
Since 1 July heating degree days 3395 3262  
Cooling Degree Days 0 0  
Month to date cooling degree days 0 0  
Year to date cooling degree days 0 0  
Growing Degree Days 4 (Base 50)    
Moisture  
Dew Point 35 °F    
Average Humidity 52    
Maximum Humidity 77    
Minimum Humidity 26    
Precipitation  
Precipitation 0.04 in 0.10 in 0.74 in (2000)
Month to date precipitation 2.15 1.84  
Year to date precipitation 3.72 4.74  
Snow  
Snow 0.00 in - - ()
Month to date snowfall 16.7  
Since 1 July snowfall 36.9  
Snow Depth 5.00 in    
Sea Level Pressure  
Sea Level Pressure 29.91 in    
Wind  
Wind Speed 12 mph (WSW)    
Max Wind Speed 33 mph    
Max Gust Speed 48 mph    
Visibility 10 miles    
Events Rain    
T = Trace of Precipitation, MM = Missing Value Source: NWS Daily Summary

Daily Weather History Graph

Daily Weather History Graph

Search for Another Location

Airport or City:

Trip Planner

Search our weather history database for the weather conditions in past years. The results will help you decide how hot, cold, wet, or windy it might be!

Date:

Astronomy

Feb. 19, 2014 Rise Set
Actual Time 7:09 AM EST 6:08 PM EST
Civil Twilight 6:42 AM EST 6:35 PM EST
Nautical Twilight 6:12 AM EST 7:05 PM EST
Astronomical Twilight 5:41 AM EST 7:35 PM EST
Moon 10:53 PM EST (2/19) 9:20 AM EST (2/19)
Length of Visible Light 11h 52m
Length of Day
10h 59m
Waning Gibbous, 80% of the Moon is Illuminated
Feb 19
Waning Gibbous
Feb 22
Last Quarter
Mar 1
New
Mar 8
First Quarter
Mar 16
Full

Hourly Weather History & Observations

Time (EST) Temp. Windchill Dew Point Humidity Pressure Visibility Wind Dir Wind Speed Gust Speed Precip Events Conditions
12:52 AM 54.0 °F - 24.1 °F 31% 29.94 in 10.0 mi SSW 6.9 mph 18.4 mph N/A   Mostly Cloudy
1:52 AM 53.1 °F - 25.0 °F 34% 29.91 in 10.0 mi Variable 6.9 mph - N/A   Scattered Clouds
2:52 AM 53.1 °F - 27.0 °F 37% 29.88 in 10.0 mi SSW 5.8 mph - N/A   Mostly Cloudy
3:52 AM 54.0 °F - 30.9 °F 41% 29.86 in 10.0 mi SSW 8.1 mph - N/A   Overcast
4:52 AM 53.1 °F - 37.9 °F 57% 29.83 in 10.0 mi SW 9.2 mph 19.6 mph N/A   Scattered Clouds
5:34 AM 51.8 °F - 39.2 °F 62% 29.87 in 10.0 mi SW 10.4 mph 17.3 mph N/A   Overcast
5:52 AM 53.1 °F - 42.1 °F 66% 29.82 in 10.0 mi SSW 11.5 mph 20.7 mph N/A   Overcast
6:34 AM 50.0 °F - 42.8 °F 76% 29.86 in 10.0 mi WSW 12.7 mph - 0.01 in Rain Light Rain
6:52 AM 50.0 °F - 44.1 °F 80% 29.85 in 10.0 mi WSW 12.7 mph 23.0 mph 0.02 in Rain Light Rain
6:59 AM 50.0 °F - 44.6 °F 82% 29.87 in 10.0 mi WSW 15.0 mph - 0.00 in Rain Light Rain
7:52 AM 50.0 °F - 44.1 °F 80% 29.84 in 10.0 mi WSW 13.8 mph - 0.02 in   Overcast
8:52 AM 52.0 °F - 45.0 °F 77% 29.84 in 10.0 mi WSW 16.1 mph - 0.00 in   Clear
9:52 AM 55.0 °F - 44.1 °F 67% 29.85 in 10.0 mi West 15.0 mph 24.2 mph N/A   Scattered Clouds
10:52 AM 55.9 °F - 41.0 °F 57% 29.87 in 10.0 mi West 23.0 mph 36.8 mph N/A   Partly Cloudy
11:52 AM 57.9 °F - 41.0 °F 53% 29.86 in 10.0 mi West 18.4 mph 42.6 mph N/A   Scattered Clouds
12:52 PM 59.0 °F - 41.0 °F 51% 29.84 in 10.0 mi West 24.2 mph 40.3 mph N/A   Partly Cloudy
1:52 PM 61.0 °F - 39.9 °F 46% 29.84 in 10.0 mi West 21.9 mph 36.8 mph N/A   Partly Cloudy
2:52 PM 61.0 °F - 35.1 °F 38% 29.86 in 10.0 mi West 21.9 mph 41.4 mph N/A   Partly Cloudy
3:52 PM 62.1 °F - 34.0 °F 35% 29.88 in 10.0 mi West 15.0 mph 27.6 mph N/A   Clear
4:52 PM 60.1 °F - 32.0 °F 35% 29.92 in 10.0 mi West 11.5 mph 21.9 mph N/A   Clear
5:52 PM 57.0 °F - 32.0 °F 39% 29.97 in 10.0 mi WNW 9.2 mph 19.6 mph N/A   Clear
6:52 PM 54.0 °F - 26.1 °F 34% 30.03 in 10.0 mi WNW 6.9 mph - N/A   Clear
7:52 PM 52.0 °F - 28.0 °F 40% 30.06 in 10.0 mi NW 5.8 mph - N/A   Clear
8:52 PM 50.0 °F - 24.1 °F 36% 30.08 in 10.0 mi WSW 3.5 mph - N/A   Clear
9:52 PM 48.9 °F - 23.0 °F 36% 30.09 in 10.0 mi SW 3.5 mph - N/A   Clear
10:52 PM 46.9 °F - 21.9 °F 37% 30.07 in 10.0 mi Calm Calm - N/A   Clear
11:52 PM 46.0 °F 44.8 °F 24.1 °F 42% 30.05 in 10.0 mi East 3.5 mph - N/A   Clear